1337558429067,163.902
1337558489067,163.633
1337558549067,163.289
1337558609067,163.175
1337558669067,163.457
1337558729067,163.174
1337558789067,163.498
1337558849067,163.348
1337558909067,163.127
1337558969067,163.434
1337559029067,163.227
1337559089067,163.109
1337559149067,163.408
1337559209067,163.329
1337559269067,163.503
1337559329067,163.463
1337559389067,163.583
1337559449067,163.374
1337559509067,163.519
1337559569067,163.198
1337559629067,163.585
1337559689067,163.249
1337559749067,163.303
1337559809067,163.645
1337559869067,163.589
1337559929067,163.273
1337559989067,163.438
1337560049067,163.293
1337560109067,163.450
1337560169067,163.288
1337560229067,163.578
1337560289067,163.432
1337560349067,163.524
1337560409067,163.760
1337560469067,163.692
1337560529067,163.407
1337560589067,163.266
1337560649067,163.680
1337560709067,163.803
1337560769067,163.539
1337560829067,163.481
1337560889067,163.799
1337560949067,163.543
1337561009067,163.555
1337561069067,163.364
1337561129067,163.945
1337561189067,163.699
1337561249067,163.425
1337561309067,163.563
1337561369067,163.743
1337561429067,163.521
1337561489067,163.387
1337561549067,163.680
1337561609067,163.721
1337561669067,163.354
1337561729067,163.450
1337561789067,163.380
1337561849067,163.545
1337561909067,163.167
1337561969067,163.462
1337562029079,163.386
1337562089079,163.471
1337562149079,163.579
1337562209079,163.399
1337562269079,163.317
1337562329079,163.601
1337562389079,163.316
1337562449079,163.829
1337562509079,163.578
1337562569079,163.448
1337562629079,163.316
1337562689079,163.879
1337562749079,163.149
1337562809079,163.563
1337562869079,163.670
1337562929079,163.290
1337562989079,163.429
1337563049079,163.523
1337563109079,163.382
1337563169079,163.784
1337563229079,163.432
1337563289079,163.792
1337563349079,163.163
1337563409079,163.467
1337563469079,163.210
1337563529079,163.316
1337563589079,163.329
1337563649079,163.483
1337563709079,163.479
1337563769079,163.131
1337563829079,163.187
1337563889079,163.266
1337563949079,163.346
1337564009079,163.355
1337564069079,163.283
1337564129079,163.574
1337564189079,162.935
1337564249079,163.184
1337564309079,163.145
1337564369079,162.914
1337564429079,162.948
1337564489079,163.381
1337564549079,163.292
1337564609079,163.016
1337564669079,163.140
1337564729079,163.441
1337564789079,163.199
1337564849079,163.276
1337564909079,163.157
1337564969079,163.413
1337565029079,163.079
1337565089079,162.992
1337565149079,163.310
1337565209079,162.979
1337565269079,163.175
1337565329079,163.208
1337565389079,163.102
1337565449079,163.209
1337565509079,162.924
1337565569079,163.245
1337565629089,162.960
1337565689089,162.912
1337565749089,162.977
1337565809089,163.095
1337565869089,163.328
1337565929089,162.995
1337565989089,163.020
1337566049089,163.126
1337566109089,163.008
1337566169089,163.483
1337566229089,163.096
1337566289089,162.802
1337566349089,162.971
1337566409089,163.067
1337566469089,163.171
1337566529089,163.034
1337566589089,162.984
1337566649089,162.950
1337566709089,163.038
1337566769089,162.942
1337566829089,163.289
1337566889089,162.937
1337566949089,163.002
1337567009089,163.135
1337567069089,163.535
1337567129089,163.243
1337567189089,163.246
1337567249089,163.235
1337567309089,163.143
1337567369089,163.120
1337567429089,163.265
1337567489089,163.132
1337567549089,163.060
1337567609089,163.311
1337567669089,163.320
1337567729089,163.410
1337567789089,163.442
1337567849089,163.131
1337567909089,163.130
1337567969089,163.000
1337568029089,163.079
1337568089089,163.168
1337568149089,163.059
1337568209089,163.221
1337568269089,163.165
1337568329089,162.943
1337568389089,163.288
1337568449089,163.225
1337568509089,163.208
1337568569089,162.931
1337568629089,163.203
1337568689089,163.356
1337568749089,163.115
1337568809089,162.935
1337568869089,163.327
1337568929089,162.995
1337568989089,163.126
1337569049089,162.989
1337569109089,163.095
1337569169089,163.025
1337569229100,163.058
1337569289100,162.987
1337569349100,162.812
1337569409100,162.858
1337569469100,163.205
1337569529100,163.060
1337569589100,162.914
1337569649100,162.963
1337569709100,163.228
1337569769100,162.769
1337569829100,163.085
1337569889100,162.901
1337569949100,163.160
1337570009100,162.998
1337570069100,163.070
1337570129100,162.529
1337570189100,162.839
1337570249100,162.806
1337570309100,163.153
1337570369100,163.085
1337570429100,162.865
1337570489100,162.608
1337570549100,163.063
1337570609100,163.122
1337570669100,163.017
1337570729100,162.761
1337570789100,162.843
1337570849100,162.525
1337570909100,162.548
1337570969100,162.497
1337571029100,162.873
1337571089100,162.623
1337571149100,162.625
1337571209100,162.597
1337571269100,162.561
1337571329100,162.512
1337571389100,162.530
1337571449100,162.681
1337571509100,162.413
1337571569100,162.784
1337571629100,162.621
1337571689100,162.199
1337571749100,162.558
1337571809100,162.564
1337571869100,162.804
1337571929100,162.603
1337571989100,162.737
1337572049100,162.648
1337572109100,162.668
1337572169100,162.783
1337572229100,162.796
1337572289100,162.579
1337572349100,162.467
1337572409100,162.524
1337572469100,162.893
1337572529100,162.688
1337572589100,162.677
1337572649100,162.577
1337572709100,162.347
1337572769100,162.463
1337572829110,162.659
1337572889110,162.863
1337572949110,162.754
1337573009110,162.773
1337573069110,162.750
1337573129110,162.879
1337573189110,162.818
1337573249110,162.761
1337573309110,162.660
1337573369110,162.769
1337573429110,162.612
1337573489110,162.883
1337573549110,162.782
1337573609110,162.795
1337573669110,162.947
1337573729110,162.736
1337573789110,162.720
1337573849110,162.400
1337573909110,162.705
1337573969110,162.599
1337574029110,162.573
1337574089110,162.664
1337574149110,162.577
1337574209110,162.641
1337574269110,162.728
1337574329110,162.712
1337574389110,162.732
1337574449110,163.141
1337574509110,163.055
1337574569110,162.625
1337574629110,162.779
1337574689110,163.026
1337574749110,162.864
1337574809110,162.532
1337574869110,162.865
1337574929110,162.747
1337574989110,163.067
1337575049110,162.708
1337575109110,162.899
1337575169110,162.743
1337575229110,162.773
1337575289110,162.951
1337575349110,162.910
1337575409110,162.740
1337575469110,162.670
1337575529110,162.741
1337575589110,162.505
1337575649110,163.040
1337575709110,162.589
1337575769110,162.633
1337575829110,162.854
1337575889110,162.643
1337575949110,162.688
1337576009110,162.928
1337576069110,162.739
1337576129110,162.798
1337576189110,162.650
1337576249110,162.908
1337576309110,162.973
1337576369110,162.597
1337576429120,162.424
1337576489120,162.659
1337576549120,162.164
1337576609120,162.629
1337576669120,162.840
1337576729120,162.662
1337576789120,162.538
1337576849120,162.499
1337576909120,162.556
1337576969120,162.613
1337577029120,162.620
1337577089120,162.539
1337577149120,162.325
1337577209120,162.451
1337577269120,162.597
1337577329120,162.088
1337577389120,162.405
1337577449120,162.140
1337577509120,162.052
1337577569120,162.087
1337577629120,162.120
1337577689120,161.886
1337577749120,162.390
1337577809120,162.070
1337577869120,162.326
1337577929120,162.422
1337577989120,162.045
1337578049120,162.100
1337578109120,161.956
1337578169120,162.299
1337578229120,162.191
1337578289120,162.139
1337578349120,162.150
1337578409120,161.948
1337578469120,162.093
1337578529120,162.003
1337578589120,161.831
1337578649120,162.179
1337578709120,161.926
1337578769120,161.959
1337578829120,161.854
1337578889120,161.747
1337578949120,162.193
1337579009120,161.935
1337579069120,161.822
1337579129120,161.585
1337579189120,161.798
1337579249120,162.178
1337579309120,161.927
1337579369120,161.874
1337579429120,162.300
1337579489120,162.049
1337579549120,162.328
1337579609120,161.808
1337579669120,162.252
1337579729120,162.140
1337579789120,161.929
1337579849120,162.246
1337579909120,162.103
1337579969120,162.144
1337580029130,161.927
1337580089130,162.359
1337580149130,161.796
1337580209130,161.980
1337580269130,161.777
1337580329130,162.098
1337580389130,161.982
1337580449130,162.063
1337580509130,162.177
1337580569130,161.613
1337580629130,162.136
1337580689130,161.671
1337580749130,161.640
1337580809130,161.982
1337580869130,161.472
1337580929130,161.658
1337580989130,161.426
1337581049130,161.856
1337581109130,161.853
1337581169130,161.600
1337581229130,161.663
1337581289130,161.550
1337581349130,161.661
1337581409130,161.448
1337581469130,161.586
1337581529130,161.406
1337581589130,161.874
1337581649130,161.556
1337581709130,161.514
1337581769130,161.631
1337581829130,161.519
1337581889130,161.447
1337581949130,161.458
1337582009130,161.622
1337582069130,161.494
1337582129130,161.278
1337582189130,161.746
1337582249130,161.659
1337582309130,161.006
1337582369130,161.457
1337582429130,161.027
1337582489130,161.059
1337582549130,161.478
1337582609130,161.309
1337582669130,161.652
1337582729130,161.281
1337582789130,161.152
1337582849130,161.041
1337582909130,160.988
1337582969130,161.047
1337583029130,160.878
1337583089130,161.168
1337583149130,160.975
1337583209130,160.665
1337583269130,160.970
1337583329130,161.178
1337583389130,160.817
1337583449130,160.771
1337583509130,160.510
1337583569130,160.344
1337583629140,160.684
1337583689140,160.639
1337583749140,160.895
1337583809140,160.505
1337583869140,160.636
1337583929140,160.544
1337583989140,160.563
1337584049140,160.606
1337584109140,160.596
1337584169140,160.700
1337584229140,160.791
1337584289140,160.528
1337584349140,160.430
1337584409140,160.267
1337584469140,160.250
1337584529140,160.348
1337584589140,160.499
1337584649140,160.589
1337584709140,160.618
1337584769140,160.736
1337584829140,160.492
1337584889140,160.613
1337584949140,160.384
1337585009140,160.435
1337585069140,160.729
1337585129140,160.575
1337585189140,160.287
1337585249140,160.820
1337585309140,160.480
1337585369140,160.384
1337585429140,160.531
1337585489140,160.262
1337585549140,160.587
1337585609140,160.297
1337585669140,160.245
1337585729140,160.425
1337585789140,160.260
1337585849140,160.320
1337585909140,160.468
1337585969140,160.525
1337586029140,160.257
1337586089140,160.660
1337586149140,160.329
1337586209140,160.390
1337586269140,160.444
1337586329140,160.151
1337586389140,160.395
1337586449140,160.371
1337586509140,160.442
1337586569140,160.139
1337586629140,160.574
1337586689140,160.659
1337586749140,160.810
1337586809140,160.238
1337586869140,160.750
1337586929140,160.487
1337586989140,160.466
1337587049140,160.932
1337587109140,160.241
1337587169140,160.444
1337587229150,160.716
1337587289150,160.672
1337587349150,160.582
1337587409150,160.635
1337587469150,160.406
1337587529150,160.520
1337587589150,160.489
1337587649150,160.800
1337587709150,160.536
1337587769150,160.547
1337587829150,160.516
1337587889150,160.373
1337587949150,160.346
1337588009150,160.682
1337588069150,160.812
1337588129150,160.588
1337588189150,160.740
1337588249150,160.841
1337588309150,160.826
1337588369150,160.832
1337588429150,160.370
1337588489150,160.671
1337588549150,160.675
1337588609150,160.457
1337588669150,160.517
1337588729150,160.871
1337588789150,160.806
1337588849150,160.717
1337588909150,160.552
1337588969150,160.923
1337589029150,160.672
1337589089150,160.877
1337589149150,160.859
1337589209150,160.759
1337589269150,160.699
1337589329150,160.846
1337589389150,161.186
1337589449150,161.001
1337589509150,161.293
1337589569150,161.094
1337589629150,161.198
1337589689150,160.743
1337589749150,161.260
1337589809150,161.297
1337589869150,160.791
1337589929150,160.962
1337589989150,161.059
1337590049150,160.948
1337590109150,161.293
1337590169150,161.094
1337590229150,161.641
1337590289150,161.156
1337590349150,161.413
1337590409150,161.187
1337590469150,161.722
1337590529150,161.212
1337590589150,161.613
1337590649150,161.399
1337590709150,161.095
1337590769150,161.373
1337590829160,161.619
1337590889160,161.306
1337590949160,161.556
1337591009160,161.504
1337591069160,161.221
1337591129160,161.359
1337591189160,161.481
1337591249160,161.344
1337591309160,161.488
1337591369160,161.374
1337591429160,161.507
1337591489160,161.699
1337591549160,161.505
1337591609160,161.181
1337591669160,161.546
1337591729160,161.402
1337591789160,161.359
1337591849160,161.625
1337591909160,161.597
1337591969160,161.672
1337592029160,161.582
1337592089160,161.492
1337592149160,161.580
1337592209160,161.771
1337592269160,161.785
1337592329160,161.613
1337592389160,162.030
1337592449160,161.828
1337592509160,161.554
1337592569160,161.862
1337592629160,161.443
1337592689160,161.656
1337592749160,161.345
1337592809160,161.667
1337592869160,162.129
1337592929160,161.712
1337592989160,161.751
1337593049160,161.914
1337593109160,161.930
1337593169160,161.796
1337593229160,162.016
1337593289160,161.888
1337593349160,162.052
1337593409160,162.165
1337593469160,161.812
1337593529160,161.835
1337593589160,161.679
1337593649160,162.330
1337593709160,161.836
1337593769160,161.876
1337593829160,161.966
1337593889160,162.143
1337593949160,162.047
1337594009160,161.624
1337594069160,161.890
1337594129160,161.864
1337594189160,161.836
1337594249160,161.812
1337594309160,161.982
1337594369160,162.286
1337594429170,161.587
1337594489170,161.843
1337594549170,161.613
1337594609170,161.625
1337594669170,161.654
1337594729170,161.553
1337594789170,161.751
1337594849170,161.411
1337594909170,161.868
1337594969170,161.657
1337595029170,161.593
1337595089170,161.763
1337595149170,161.234
1337595209170,161.722
1337595269170,161.376
1337595329170,161.499
1337595389170,161.284
1337595449170,161.787
1337595509170,161.553
1337595569170,161.439
1337595629170,161.372
1337595689170,161.672
1337595749170,161.381
1337595809170,161.261
1337595869170,161.581
1337595929170,161.703
1337595989170,161.491
1337596049170,161.392
1337596109170,161.361
1337596169170,161.631
1337596229170,161.668
1337596289170,161.560
1337596349170,161.563
1337596409170,161.286
1337596469170,161.632
1337596529170,161.012
1337596589170,160.758
1337596649170,161.336
1337596709170,160.944
1337596769170,161.065
1337596829170,161.335
1337596889170,161.019
1337596949170,161.289
1337597009170,161.559
1337597069170,161.371
1337597129170,161.308
1337597189170,161.418
1337597249170,161.168
1337597309170,160.948
1337597369170,161.041
1337597429170,161.361
1337597489170,161.262
1337597549170,161.111
1337597609170,160.802
1337597669170,161.172
1337597729170,160.899
1337597789170,160.958
1337597849170,161.075
1337597909170,160.947
1337597969170,160.880
1337598029179,160.954
1337598089179,161.043
1337598149179,161.096
1337598209179,160.618
1337598269179,160.521
1337598329179,160.772
1337598389179,160.744
1337598449179,160.473
1337598509179,160.827
1337598569179,160.562
1337598629179,160.535
1337598689179,160.840
1337598749179,160.624
1337598809179,160.516
1337598869179,160.331
1337598929179,160.716
1337598989179,160.325
1337599049179,160.517
1337599109179,160.597
1337599169179,160.159
1337599229179,160.483
1337599289179,160.208
1337599349179,160.418
1337599409179,160.174
1337599469179,160.072
1337599529179,160.382
1337599589179,160.261
1337599649179,160.291
1337599709179,160.204
1337599769179,160.328
1337599829179,160.338
1337599889179,160.261
1337599949179,160.599
1337600009179,160.316
1337600069179,160.369
1337600129179,160.558
1337600189179,160.691
1337600249179,160.538
1337600309179,160.509
1337600369179,160.807
1337600429179,160.377
1337600489179,160.279
1337600549179,160.145
1337600609179,160.538
1337600669179,160.522
1337600729179,160.253
1337600789179,160.371
1337600849179,160.363
1337600909179,160.390
1337600969179,160.301
1337601029179,160.251
1337601089179,160.309
1337601149179,160.236
1337601209179,160.158
1337601269179,160.334
1337601329179,160.048
1337601389179,160.321
1337601449179,160.418
1337601509179,160.362
1337601569179,160.415
1337601629189,160.321
1337601689189,160.588
1337601749189,160.488
1337601809189,160.594
1337601869189,160.607
1337601929189,160.696
1337601989189,160.915
1337602049189,160.756
1337602109189,160.758
1337602169189,160.864
1337602229189,160.940
1337602289189,160.923
1337602349189,160.991
1337602409189,160.582
1337602469189,160.766
1337602529189,160.877
1337602589189,160.544
1337602649189,160.930
1337602709189,160.553
1337602769189,160.789
1337602829189,160.877
1337602889189,160.488
1337602949189,160.937
1337603009189,160.884
1337603069189,160.833
1337603129189,160.979
1337603189189,161.106
1337603249189,161.373
1337603309189,160.999
1337603369189,160.908
1337603429189,160.911
1337603489189,160.814
1337603549189,160.794
1337603609189,161.191
1337603669189,160.875
1337603729189,160.622
1337603789189,161.083
1337603849189,160.983
1337603909189,160.975
1337603969189,160.567
1337604029189,160.655
1337604089189,160.683
1337604149189,161.110
1337604209189,160.867
1337604269189,161.157
1337604329189,160.845
1337604389189,160.934
1337604449189,160.822
1337604509189,160.600
1337604569189,160.872
1337604629189,160.806
1337604689189,160.782
1337604749189,160.853
1337604809189,160.842
1337604869189,160.829
1337604929189,160.983
1337604989189,160.912
1337605049189,160.935
1337605109189,160.850
1337605169189,161.165
1337605229199,160.824
1337605289199,160.675
1337605349199,161.112
1337605409199,160.921
1337605469199,160.954
1337605529199,160.713
1337605589199,160.967
1337605649199,161.077
1337605709199,160.928
1337605769199,161.028
1337605829199,161.012
1337605889199,161.027
1337606429199,161.081
1337606489199,161.015
1337606549199,161.253
1337606609199,161.252
1337606669199,160.800
1337606729199,161.367
1337606789199,160.770
1337606849199,161.158
1337606909199,160.869
1337606969199,160.869
1337607029199,161.126
1337607089199,160.791
1337607149199,161.122
1337607209199,161.139
1337607269199,161.141
1337607329199,160.702
1337607389199,160.931
1337607449199,160.995
1337607509199,160.865
1337607569199,160.811
1337607629199,161.210
1337607689199,160.839
1337607749199,160.806
1337607809199,161.051
1337607869199,161.366
1337607929199,161.243
1337607989199,161.077
1337608049199,161.191
1337608109199,161.373
1337608169199,160.983
1337608229199,161.162
1337608289199,161.283
1337608349199,161.262
1337608409199,161.423
1337608469199,161.142
1337608529199,161.236
1337608589199,161.142
1337608649199,161.358
1337608709199,161.603
1337608769199,161.398
1337608829208,161.195
1337608889208,161.299
1337608949208,161.386
1337609009208,161.420
1337609069208,161.342
1337609129208,161.371
1337609189208,161.538
1337609249208,161.018
1337609309208,161.064
1337609369208,161.554
1337609429208,161.448
1337609489208,161.424
1337609549208,161.719
1337609609208,161.656
1337609669208,161.754
1337609729208,161.567
1337609789208,161.678
1337609849208,161.700
1337609909208,161.514
1337609969208,161.653
1337610029208,161.998
1337610089208,161.843
1337610149208,161.599
1337610209208,161.834
1337610269208,161.635
1337610329208,161.772
1337610389208,161.263
1337610449208,161.971
1337610509208,162.011
1337610569208,161.863
1337610629208,161.951
1337610689208,161.900
1337610749208,161.827
1337610809208,161.868
1337610869208,161.795
1337610929208,162.224
1337610989208,162.102
1337611049208,162.091
1337611109208,162.084
1337611169208,161.677
1337611229208,161.874
1337611289208,162.075
1337611349208,162.158
1337611409208,161.977
1337611469208,162.142
1337611529208,162.206
1337611589208,161.973
1337611649208,162.082
1337611709208,161.870
1337611769208,162.090
1337611829208,161.937
1337611889208,162.001
1337611949208,161.990
1337612009208,161.950
1337612069208,162.108
1337612129208,162.137
1337612189208,161.997
1337612249208,162.121
1337612309208,161.837
1337612369208,162.229
1337612429218,161.950
1337612489218,162.120
1337612549218,162.023
1337612609218,161.990
1337612669218,161.760
1337612729218,162.016
1337612789218,161.982
1337612849218,161.833
1337612909218,161.968
1337612969218,161.727
1337613029218,161.542
1337613089218,161.943
1337613149218,161.917
1337613209218,162.161
1337613269218,161.942
1337613329218,161.995
1337613389218,162.002
1337613449218,162.269
1337613509218,162.090
1337613569218,161.926
1337613629218,162.124
1337613689218,162.245
1337613749218,161.812
1337613809218,161.936
1337613869218,161.849
1337613929218,162.104
1337613989218,161.792
1337614049218,161.878
1337614109218,161.970
1337614169218,162.356
1337614229218,162.409
1337614289218,161.762
1337614349218,161.705
1337614409218,162.123
1337614469218,162.209
1337614529218,161.920
1337614589218,162.207
1337614649218,162.208
1337614709218,162.103
1337614769218,162.159
1337614829218,161.765
1337614889218,161.626
1337614949218,162.180
1337615009218,162.087
1337615069218,161.981
1337615129218,162.421
1337615189218,161.804
1337615249218,161.933
1337615309218,161.740
1337615369218,162.240
1337615429218,162.007
1337615489218,162.047
1337615549218,161.985
1337615609218,161.899
1337615669218,161.874
1337615729218,162.063
1337615789218,162.150
1337615849218,162.145
1337615909218,161.972
1337615969218,161.979
1337616029228,161.918
1337616089228,162.254
1337616149228,161.961
1337616209228,161.800
1337616269228,161.946
1337616329228,162.083
1337616389228,162.218
1337616449228,162.351
1337616509228,162.375
1337616569228,162.183
1337616629228,162.098
1337616689228,162.177
1337616749228,162.037
1337616809228,162.428
1337616869228,162.208
1337616929228,162.082
1337616989228,162.151
1337617049228,162.178
1337617109228,162.552
1337617169228,162.239
1337617229228,162.291
1337617289228,162.119
1337617349228,162.215
1337617409228,162.173
1337617469228,162.175
1337617529228,162.272
1337617589228,162.149
1337617649228,162.511
1337617709228,162.263
1337617769228,162.416
1337617829228,162.526
1337617889228,162.457
1337617949228,162.280
1337618009228,162.546
1337618069228,162.416
1337618129228,162.238
1337618189228,162.539
1337618249228,162.410
1337618309228,162.646
1337618369228,162.597
1337618429228,162.367
1337618489228,162.356
1337618549228,162.537
1337618609228,162.136
1337618669228,162.761
1337618729228,162.480
1337618789228,162.092
1337618849228,162.534
1337618909228,162.530
1337618969228,162.280
1337619029228,162.476
1337619089228,162.440
1337619149228,162.471
1337619209228,162.778
1337619269228,162.487
1337619329228,162.456
1337619389228,162.554
1337619449228,162.545
1337619509228,162.570
1337619569228,162.856
1337619629238,162.731
1337619689238,162.757
1337619749238,162.303
1337619809238,162.562
1337619869238,162.164
1337619929238,162.594
1337619989238,162.578
1337620049238,162.772
1337620109238,162.783
1337620169238,162.611
1337620229238,162.047
1337620289238,162.388
1337620349238,162.557
1337620409238,162.532
1337620469238,162.378
1337620529238,162.229
1337620589238,162.496
1337620649238,162.366
1337620709238,162.384
1337620769238,162.520
1337620829238,162.231
1337620889238,162.215
1337620949238,162.864
1337621009238,162.439
1337621069238,162.506
1337621129238,162.251
1337621189238,162.166
1337621249238,162.487
1337621309238,162.319
1337621369238,162.476
1337621429238,162.556
1337621489238,162.339
1337621549238,162.508
1337621609238,162.623
1337621669238,162.735
1337621729238,162.458
1337621789238,162.461
1337621849238,162.567
1337621909238,162.400
1337621969238,162.642
1337622029238,162.536
1337622089238,162.497
1337622149238,162.469
1337622209238,162.647
1337622269238,162.615
1337622329238,162.396
1337622389238,162.602
1337622449238,162.336
1337622509238,162.463
1337622569238,162.148
1337622629238,162.479
1337622689238,162.347
1337622749238,162.837
1337622809238,162.733
1337622869238,162.663
1337622929238,162.846
1337622989238,162.656
1337623049238,162.599
1337623109238,162.512
1337623169238,162.338
1337623229248,162.734
1337623289248,162.496
1337623349248,162.768
1337623409248,162.651
1337623469248,162.375
1337623529248,162.830
1337623589248,162.753
1337623649248,162.879
1337623709248,162.542
1337623769248,162.666
1337623829248,162.628
1337623889248,162.605
1337623949248,162.768
1337624009248,162.896
1337624069248,162.672
1337624129248,162.657
1337624189248,162.658
1337624249248,163.019